FENGYUN 1C DEB

Satellite information

Favourite Embed

Satellite Type and Status

DEBRISIN ORBIT

Key statistics

Satellite FENGYUN 1C DEB at a glance.

Uptime

9555

Days in orbit

Revolutions

≈ 14.0

Per day

Orbit

SSO

Sun Synchronous Orbit

Inclination

98.8

Latest

Satellite identification and parameters

Extended collection of information and parameters for FENGYUN 1C DEB.

Object identification

Identified? True

Debris? True

Object name: FENGYUN 1C DEB

International designator: 1999-025EGN

Object number (NORAD): 37420

Object ID (CCSDS): 37420

Country: PEOPLES REPUBLIC OF CHINA (PRC)

Current information (Y/N): Y

RCS size: SMALL

Orbital parameters

Period: 102.892 minutes

Inclination: 98.8489 deg

SMA: 7273.552 km

Apoapsis: 948.828 km

Periapsis: 842.005 km

RAAN: 181.3958 deg

Eccentricy: 0.0073433

Argument of periapsis: 1.8307 deg

Mean anomaly: 358.3113 deg

Mean motion: 13.99532473 rev/day

Mean motion (dot): 0.00000538 rev/day2

B* drag term: 0.00038888 1/REarth

Two-line elements (TLE)

Creation date: July 5, 2025, 5:45 p.m.

Reference frame: TEME

Reference center: EARTH

Epoch: July 5, 2025, 5 a.m. UTC

TLE line 0: 0 FENGYUN 1C DEB

TLE line 1: 1 37420U 99025EGN 25186.20878380 .00000538 00000-0 38888-3 0 9993

TLE line 2: 2 37420 98.8489 181.3958 0073433 1.8307 358.3113 13.99532473575195

Live tracking on map

Real-time ground track for satellite FENGYUN 1C DEB.

In-orbit conjunctions

A list of the most updated potential collisions computed for object FENGYUN 1C DEB.

Target Orbit TCA Probability of collision Miss distance Type
COSMOS 1299 LEO 2024-11-17 05:19:27 0.0001528383 348.0 (m) PAYLOAD
FENGYUN 1C DEB SSO 2024-09-29 08:38:04 0.0001395735 451.0 (m) DEBRIS
MSX DEB SSO 2024-07-12 10:15:06 0.0001044517 483.0 (m) DEBRIS

Associated space launch

Chinese polar orbiting meteorological satellite

FENGYUN 1C DEB was lifted into orbit during the mission ‘Long March 4B | Feng Yun 1C’, on board a Long March 4B space rocket.

The launch took place on May 10, 1999, 1:33 a.m. from Launch Complex 7.

For more information about the launch, click the button.

Launch to space Long March 4B | Feng Yun 1C
Long March 4B | Feng Yun 1C

Agency: N/A

Status: Launch Successful

Launch date: May 10, 1999, 1:33 a.m. UTC

Rocket: Long March 4B

Launch pad: Launch Complex 7

Location: Taiyuan Satellite Launch Center, People's Republic of China

...

Latest news about this satellite

There are no fresh news available about this satellite. Check back as we update our databases every day.


Newsletter sign-up

Weekly statistics, charts and insights to help you stay on top of the space industry.